Wetterdaten: Donnerstag, 17.12.2015
Datum Zeit Temp. A. Feuchte A. Luftdruck Regen Wind Richtung Richtung Sonnenschein ET UV Solar Taupunkt Windchill Windben Empfang
17.12.2015 00:00 3,0 C 98 % 1029,9 hPa 0,0 l/m 2,0 km/h (1 Bft) O-NO 67 0 min 0,000 mm 0,0 UV-I 0 W/m 2,7 C 3,0 C 4,8 km/h (1 Bft) 100,00 %
17.12.2015 00:05 3,0 C 98 % 1029,8 hPa 0,0 l/m 2,7 km/h (1 Bft) NO 50 0 min 0,000 mm 0,0 UV-I 0 W/m 2,7 C 3,0 C 4,8 km/h (1 Bft) 98,08 %
17.12.2015 00:10 3,0 C 98 % 1029,8 hPa 0,2 l/m 3,9 km/h (1 Bft) NO 50 0 min 0,000 mm 0,0 UV-I 0 W/m 2,7 C 3,0 C 6,4 km/h (2 Bft) 99,17 %
17.12.2015 00:15 3,0 C 98 % 1029,9 hPa 0,0 l/m 3,4 km/h (1 Bft) NO 50 0 min 0,000 mm 0,0 UV-I 0 W/m 2,7 C 3,0 C 9,7 km/h (2 Bft) 99,19 %
17.12.2015 00:20 2,9 C 98 % 1029,8 hPa 0,0 l/m 3,0 km/h (1 Bft) NO 53 0 min 0,000 mm 0,0 UV-I 0 W/m 2,6 C 2,9 C 4,8 km/h (1 Bft) 97,32 %
17.12.2015 00:25 2,9 C 98 % 1029,8 hPa 0,0 l/m 3,7 km/h (1 Bft) NO 39 0 min 0,000 mm 0,0 UV-I 0 W/m 2,6 C 2,9 C 6,4 km/h (2 Bft) 99,21 %
17.12.2015 00:30 3,0 C 98 % 1029,8 hPa 0,0 l/m 3,9 km/h (1 Bft) NO 49 0 min 0,000 mm 0,0 UV-I 0 W/m 2,7 C 3,0 C 6,4 km/h (2 Bft) 100,00 %
17.12.2015 00:35 2,9 C 98 % 1029,8 hPa 0,0 l/m 2,7 km/h (1 Bft) O-NO 61 0 min 0,000 mm 0,0 UV-I 0 W/m 2,6 C 2,9 C 4,8 km/h (1 Bft) 99,13 %
17.12.2015 00:40 2,9 C 98 % 1029,8 hPa 0,0 l/m 2,7 km/h (1 Bft) NO 40 0 min 0,000 mm 0,0 UV-I 0 W/m 2,6 C 2,9 C 6,4 km/h (2 Bft) 100,00 %
17.12.2015 00:45 2,9 C 98 % 1029,7 hPa 0,0 l/m 3,6 km/h (1 Bft) NO 51 0 min 0,000 mm 0,0 UV-I 0 W/m 2,6 C 2,9 C 6,4 km/h (2 Bft) 100,00 %
17.12.2015 00:50 2,9 C 98 % 1029,6 hPa 0,0 l/m 3,5 km/h (1 Bft) O-NO 58 0 min 0,000 mm 0,0 UV-I 0 W/m 2,6 C 2,9 C 6,4 km/h (2 Bft) 97,67 %
17.12.2015 00:55 2,9 C 98 % 1029,7 hPa 0,0 l/m 3,5 km/h (1 Bft) O-NO 57 0 min 0,000 mm 0,0 UV-I 0 W/m 2,6 C 2,9 C 6,4 km/h (2 Bft) 97,39 %
17.12.2015 01:00 2,9 C 98 % 1029,7 hPa 0,0 l/m 3,8 km/h (1 Bft) O-NO 57 0 min 0,000 mm 0,0 UV-I 0 W/m 2,6 C 2,9 C 6,4 km/h (2 Bft) 97,46 %
17.12.2015 01:05 2,9 C 98 % 1029,6 hPa 0,0 l/m 4,1 km/h (1 Bft) N-NO 33 0 min 0,000 mm 0,0 UV-I 0 W/m 2,6 C 2,9 C 6,4 km/h (2 Bft) 97,22 %
17.12.2015 01:10 2,9 C 98 % 1029,6 hPa 0,0 l/m 3,8 km/h (1 Bft) NO 38 0 min 0,000 mm 0,0 UV-I 0 W/m 2,6 C 2,9 C 6,4 km/h (2 Bft) 86,44 %
17.12.2015 01:15 2,9 C 98 % 1029,5 hPa 0,2 l/m 3,6 km/h (1 Bft) NO 41 0 min 0,000 mm 0,0 UV-I 0 W/m 2,6 C 2,9 C 6,4 km/h (2 Bft) 36,84 %
17.12.2015 01:20 2,9 C 98 % 1029,5 hPa 0,0 l/m 5,3 km/h (1 Bft) O-NO 64 0 min 0,000 mm 0,0 UV-I 0 W/m 2,6 C 2,9 C 8,0 km/h (2 Bft) 4,76 %
17.12.2015 01:25 2,9 C 98 % 1029,5 hPa 0,0 l/m 5,2 km/h (1 Bft) NO 54 0 min 0,000 mm 0,0 UV-I 0 W/m 2,6 C 2,9 C 8,0 km/h (2 Bft) 80,49 %
17.12.2015 01:30 2,8 C 98 % 1029,5 hPa 0,0 l/m 4,4 km/h (1 Bft) NO 47 0 min 0,000 mm 0,0 UV-I 0 W/m 2,5 C 2,8 C 8,0 km/h (2 Bft) 94,92 %
17.12.2015 01:35 2,8 C 98 % 1029,4 hPa 0,0 l/m 4,5 km/h (1 Bft) O-NO 59 0 min 0,000 mm 0,0 UV-I 0 W/m 2,5 C 2,8 C 6,4 km/h (2 Bft) 97,37 %
17.12.2015 01:40 2,8 C 98 % 1029,4 hPa 0,0 l/m 5,2 km/h (1 Bft) NO 47 0 min 0,000 mm 0,0 UV-I 0 W/m 2,5 C 2,8 C 8,0 km/h (2 Bft) 100,00 %
17.12.2015 01:45 2,8 C 98 % 1029,4 hPa 0,0 l/m 5,3 km/h (1 Bft) NO 34 0 min 0,000 mm 0,0 UV-I 0 W/m 2,5 C 2,8 C 8,0 km/h (2 Bft) 99,19 %
17.12.2015 01:50 2,8 C 98 % 1029,4 hPa 0,0 l/m 5,1 km/h (1 Bft) NO 42 0 min 0,000 mm 0,0 UV-I 0 W/m 2,5 C 2,8 C 8,0 km/h (2 Bft) 100,00 %
17.12.2015 01:55 2,8 C 98 % 1029,5 hPa 0,2 l/m 5,0 km/h (1 Bft) NO 49 0 min 0,000 mm 0,0 UV-I 0 W/m 2,5 C 2,8 C 8,0 km/h (2 Bft) 98,26 %
17.12.2015 02:00 2,8 C 98 % 1029,6 hPa 0,0 l/m 4,8 km/h (1 Bft) NO 45 0 min 0,000 mm 0,0 UV-I 0 W/m 2,5 C 2,8 C 6,4 km/h (2 Bft) 98,33 %
17.12.2015 02:05 2,8 C 98 % 1029,5 hPa 0,0 l/m 5,1 km/h (1 Bft) NO 56 0 min 0,000 mm 0,0 UV-I 0 W/m 2,5 C 2,8 C 8,0 km/h (2 Bft) 100,00 %
17.12.2015 02:10 2,8 C 98 % 1029,5 hPa 0,0 l/m 4,7 km/h (1 Bft) O-NO 61 0 min 0,000 mm 0,0 UV-I 0 W/m 2,5 C 2,8 C 6,4 km/h (2 Bft) 100,00 %
17.12.2015 02:15 2,8 C 98 % 1029,4 hPa 0,0 l/m 5,5 km/h (1 Bft) O-NO 61 0 min 0,000 mm 0,0 UV-I 0 W/m 2,5 C 2,8 C 8,0 km/h (2 Bft) 100,00 %
17.12.2015 02:20 2,8 C 98 % 1029,4 hPa 0,0 l/m 7,0 km/h (2 Bft) O-NO 76 0 min 0,000 mm 0,0 UV-I 0 W/m 2,5 C 2,2 C 9,7 km/h (2 Bft) 99,06 %
17.12.2015 02:25 2,8 C 98 % 1029,4 hPa 0,0 l/m 6,2 km/h (2 Bft) O-NO 70 0 min 0,000 mm 0,0 UV-I 0 W/m 2,5 C 2,8 C 11,3 km/h (2 Bft) 99,23 %
17.12.2015 02:30 2,8 C 98 % 1029,5 hPa 0,0 l/m 4,8 km/h (1 Bft) O-NO 77 0 min 0,000 mm 0,0 UV-I 0 W/m 2,5 C 2,8 C 8,0 km/h (2 Bft) 99,11 %
17.12.2015 02:35 2,9 C 98 % 1029,5 hPa 0,0 l/m 4,4 km/h (1 Bft) O-NO 67 0 min 0,000 mm 0,0 UV-I 0 W/m 2,6 C 2,9 C 6,4 km/h (2 Bft) 100,00 %
17.12.2015 02:40 2,9 C 98 % 1029,5 hPa 0,0 l/m 3,3 km/h (1 Bft) O-NO 67 0 min 0,000 mm 0,0 UV-I 0 W/m 2,6 C 2,9 C 4,8 km/h (1 Bft) 97,50 %
17.12.2015 02:45 2,9 C 98 % 1029,5 hPa 0,0 l/m 4,4 km/h (1 Bft) O-NO 68 0 min 0,000 mm 0,0 UV-I 0 W/m 2,6 C 2,9 C 6,4 km/h (2 Bft) 100,00 %
17.12.2015 02:50 2,9 C 98 % 1029,4 hPa 0,0 l/m 4,6 km/h (1 Bft) O-NO 67 0 min 0,000 mm 0,0 UV-I 0 W/m 2,6 C 2,9 C 8,0 km/h (2 Bft) 98,26 %
17.12.2015 02:55 2,9 C 98 % 1029,5 hPa 0,0 l/m 4,4 km/h (1 Bft) NO 34 0 min 0,000 mm 0,0 UV-I 0 W/m 2,6 C 2,9 C 6,4 km/h (2 Bft) 96,75 %
17.12.2015 03:00 3,0 C 98 % 1029,4 hPa 0,0 l/m 4,9 km/h (1 Bft) O-NO 63 0 min 0,000 mm 0,0 UV-I 0 W/m 2,7 C 3,0 C 8,0 km/h (2 Bft) 97,25 %
17.12.2015 03:05 3,0 C 98 % 1029,4 hPa 0,0 l/m 3,8 km/h (1 Bft) O-NO 57 0 min 0,000 mm 0,0 UV-I 0 W/m 2,7 C 3,0 C 6,4 km/h (2 Bft) 96,49 %
17.12.2015 03:10 3,0 C 98 % 1029,4 hPa 0,0 l/m 4,8 km/h (1 Bft) NO 55 0 min 0,000 mm 0,0 UV-I 0 W/m 2,7 C 3,0 C 6,4 km/h (2 Bft) 97,58 %
17.12.2015 03:15 3,0 C 98 % 1029,4 hPa 0,0 l/m 4,3 km/h (1 Bft) NO 46 0 min 0,000 mm 0,0 UV-I 0 W/m 2,7 C 3,0 C 6,4 km/h (2 Bft) 97,39 %
17.12.2015 03:20 3,0 C 98 % 1029,4 hPa 0,0 l/m 5,9 km/h (2 Bft) NO 51 0 min 0,000 mm 0,0 UV-I 0 W/m 2,7 C 3,0 C 8,0 km/h (2 Bft) 96,58 %
17.12.2015 03:25 3,0 C 98 % 1029,3 hPa 0,0 l/m 4,3 km/h (1 Bft) O-NO 67 0 min 0,000 mm 0,0 UV-I 0 W/m 2,7 C 3,0 C 6,4 km/h (2 Bft) 96,77 %
17.12.2015 03:30 3,0 C 98 % 1029,3 hPa 0,2 l/m 4,0 km/h (1 Bft) NO 51 0 min 0,000 mm 0,0 UV-I 0 W/m 2,7 C 3,0 C 6,4 km/h (2 Bft) 100,00 %
17.12.2015 03:35 3,0 C 98 % 1029,3 hPa 0,0 l/m 5,4 km/h (1 Bft) O-NO 69 0 min 0,000 mm 0,0 UV-I 0 W/m 2,7 C 3,0 C 8,0 km/h (2 Bft) 98,29 %
17.12.2015 03:40 3,0 C 98 % 1029,2 hPa 0,0 l/m 4,5 km/h (1 Bft) O-NO 59 0 min 0,000 mm 0,0 UV-I 0 W/m 2,7 C 3,0 C 6,4 km/h (2 Bft) 99,17 %
17.12.2015 03:45 3,0 C 98 % 1029,1 hPa 0,0 l/m 3,2 km/h (1 Bft) O-NO 65 0 min 0,000 mm 0,0 UV-I 0 W/m 2,7 C 3,0 C 6,4 km/h (2 Bft) 99,15 %
17.12.2015 03:50 3,0 C 98 % 1029,1 hPa 0,0 l/m 3,2 km/h (1 Bft) NO 53 0 min 0,000 mm 0,0 UV-I 0 W/m 2,7 C 3,0 C 4,8 km/h (1 Bft) 97,46 %
17.12.2015 03:55 3,1 C 98 % 1029,0 hPa 0,0 l/m 3,8 km/h (1 Bft) O-NO 71 0 min 0,000 mm 0,0 UV-I 0 W/m 2,8 C 3,1 C 6,4 km/h (2 Bft) 99,08 %
17.12.2015 04:00 3,1 C 98 % 1029,1 hPa 0,0 l/m 4,8 km/h (1 Bft) NO 45 0 min 0,000 mm 0,0 UV-I 0 W/m 2,8 C 3,1 C 8,0 km/h (2 Bft) 100,00 %
17.12.2015 04:05 3,1 C 98 % 1029,0 hPa 0,0 l/m 4,0 km/h (1 Bft) O-NO 74 0 min 0,000 mm 0,0 UV-I 0 W/m 2,8 C 3,1 C 6,4 km/h (2 Bft) 98,48 %
17.12.2015 04:10 3,1 C 98 % 1029,1 hPa 0,0 l/m 4,4 km/h (1 Bft) O-NO 59 0 min 0,000 mm 0,0 UV-I 0 W/m 2,8 C 3,1 C 6,4 km/h (2 Bft) 98,37 %
17.12.2015 04:15 3,1 C 98 % 1029,1 hPa 0,0 l/m 3,8 km/h (1 Bft) NO 52 0 min 0,000 mm 0,0 UV-I 0 W/m 2,8 C 3,1 C 6,4 km/h (2 Bft) 99,08 %
17.12.2015 04:20 3,1 C 98 % 1029,1 hPa 0,0 l/m 3,9 km/h (1 Bft) NO 49 0 min 0,000 mm 0,0 UV-I 0 W/m 2,8 C 3,1 C 6,4 km/h (2 Bft) 100,00 %
17.12.2015 04:25 3,2 C 98 % 1029,1 hPa 0,0 l/m 3,8 km/h (1 Bft) O-NO 68 0 min 0,000 mm 0,0 UV-I 0 W/m 2,9 C 3,2 C 8,0 km/h (2 Bft) 99,22 %
17.12.2015 04:30 3,2 C 98 % 1029,0 hPa 0,0 l/m 3,2 km/h (1 Bft) NO 55 0 min 0,000 mm 0,0 UV-I 0 W/m 2,9 C 3,2 C 4,8 km/h (1 Bft) 98,26 %
17.12.2015 04:35 3,2 C 98 % 1028,9 hPa 0,0 l/m 4,6 km/h (1 Bft) NO 44 0 min 0,000 mm 0,0 UV-I 0 W/m 2,9 C 3,2 C 8,0 km/h (2 Bft) 98,21 %
17.12.2015 04:40 3,2 C 98 % 1028,9 hPa 0,0 l/m 5,6 km/h (1 Bft) NO 36 0 min 0,000 mm 0,0 UV-I 0 W/m 2,9 C 3,2 C 8,0 km/h (2 Bft) 100,00 %
17.12.2015 04:45 3,2 C 98 % 1028,9 hPa 0,0 l/m 5,5 km/h (1 Bft) NO 55 0 min 0,000 mm 0,0 UV-I 0 W/m 2,9 C 3,2 C 8,0 km/h (2 Bft) 99,11 %
17.12.2015 04:50 3,1 C 98 % 1028,8 hPa 0,0 l/m 5,4 km/h (1 Bft) NO 54 0 min 0,000 mm 0,0 UV-I 0 W/m 2,8 C 3,1 C 9,7 km/h (2 Bft) 100,00 %
17.12.2015 04:55 3,2 C 98 % 1028,8 hPa 0,0 l/m 5,5 km/h (1 Bft) O-NO 67 0 min 0,000 mm 0,0 UV-I 0 W/m 2,9 C 3,2 C 8,0 km/h (2 Bft) 97,32 %
17.12.2015 05:00 3,2 C 98 % 1028,8 hPa 0,0 l/m 5,3 km/h (1 Bft) NO 49 0 min 0,000 mm 0,0 UV-I 0 W/m 2,9 C 3,2 C 8,0 km/h (2 Bft) 95,16 %
17.12.2015 05:05 3,2 C 98 % 1028,7 hPa 0,0 l/m 6,2 km/h (2 Bft) O-NO 61 0 min 0,000 mm 0,0 UV-I 0 W/m 2,9 C 3,2 C 9,7 km/h (2 Bft) 97,30 %
17.12.2015 05:10 3,2 C 98 % 1028,8 hPa 0,0 l/m 5,2 km/h (1 Bft) NO 36 0 min 0,000 mm 0,0 UV-I 0 W/m 2,9 C 3,2 C 8,0 km/h (2 Bft) 97,58 %
17.12.2015 05:15 3,2 C 98 % 1028,8 hPa 0,0 l/m 4,3 km/h (1 Bft) NO 49 0 min 0,000 mm 0,0 UV-I 0 W/m 2,9 C 3,2 C 6,4 km/h (2 Bft) 95,65 %
17.12.2015 05:20 3,2 C 98 % 1028,7 hPa 0,0 l/m 3,9 km/h (1 Bft) N-NO 28 0 min 0,000 mm 0,0 UV-I 0 W/m 2,9 C 3,2 C 6,4 km/h (2 Bft) 95,50 %
17.12.2015 05:25 3,2 C 98 % 1028,7 hPa 0,0 l/m 4,0 km/h (1 Bft) NO 55 0 min 0,000 mm 0,0 UV-I 0 W/m 2,9 C 3,2 C 6,4 km/h (2 Bft) 97,52 %
17.12.2015 05:30 3,2 C 98 % 1028,7 hPa 0,0 l/m 3,8 km/h (1 Bft) NO 53 0 min 0,000 mm 0,0 UV-I 0 W/m 2,9 C 3,2 C 6,4 km/h (2 Bft) 98,33 %
17.12.2015 05:35 3,2 C 98 % 1028,7 hPa 0,0 l/m 4,1 km/h (1 Bft) NO 44 0 min 0,000 mm 0,0 UV-I 0 W/m 2,9 C 3,2 C 6,4 km/h (2 Bft) 99,13 %
17.12.2015 05:40 3,2 C 98 % 1028,8 hPa 0,0 l/m 2,9 km/h (1 Bft) N-NO 28 0 min 0,000 mm 0,0 UV-I 0 W/m 2,9 C 3,2 C 4,8 km/h (1 Bft) 99,17 %
17.12.2015 05:45 3,2 C 98 % 1028,7 hPa 0,0 l/m 4,7 km/h (1 Bft) NO 49 0 min 0,000 mm 0,0 UV-I 0 W/m 2,9 C 3,2 C 8,0 km/h (2 Bft) 100,00 %
17.12.2015 05:50 3,2 C 98 % 1028,9 hPa 0,0 l/m 4,2 km/h (1 Bft) N-NO 20 0 min 0,000 mm 0,0 UV-I 0 W/m 2,9 C 3,2 C 8,0 km/h (2 Bft) 98,45 %
17.12.2015 05:55 3,2 C 98 % 1028,9 hPa 0,0 l/m 2,1 km/h (1 Bft) N-NO 28 0 min 0,000 mm 0,0 UV-I 0 W/m 2,9 C 3,2 C 6,4 km/h (2 Bft) 98,17 %
17.12.2015 06:00 3,2 C 98 % 1028,8 hPa 0,0 l/m 1,6 km/h (1 Bft) N-NO 28 0 min 0,000 mm 0,0 UV-I 0 W/m 2,9 C 3,2 C 3,2 km/h (1 Bft) 100,00 %
17.12.2015 06:05 3,2 C 98 % 1028,8 hPa 0,0 l/m 2,4 km/h (1 Bft) N-NO 28 0 min 0,000 mm 0,0 UV-I 0 W/m 2,9 C 3,2 C 4,8 km/h (1 Bft) 100,00 %
17.12.2015 06:10 3,3 C 98 % 1028,9 hPa 0,0 l/m 3,9 km/h (1 Bft) NO 52 0 min 0,000 mm 0,0 UV-I 0 W/m 3,0 C 3,3 C 6,4 km/h (2 Bft) 99,12 %
17.12.2015 06:15 3,3 C 98 % 1028,9 hPa 0,0 l/m 3,3 km/h (1 Bft) N-NO 28 0 min 0,000 mm 0,0 UV-I 0 W/m 3,0 C 3,3 C 6,4 km/h (2 Bft) 100,00 %
17.12.2015 06:20 3,3 C 98 % 1028,9 hPa 0,0 l/m 2,6 km/h (1 Bft) NO 38 0 min 0,000 mm 0,0 UV-I 0 W/m 3,0 C 3,3 C 4,8 km/h (1 Bft) 98,39 %
17.12.2015 06:25 3,3 C 98 % 1028,9 hPa 0,0 l/m 2,6 km/h (1 Bft) NO 56 0 min 0,000 mm 0,0 UV-I 0 W/m 3,0 C 3,3 C 4,8 km/h (1 Bft) 98,20 %
17.12.2015 06:30 3,3 C 98 % 1028,9 hPa 0,0 l/m 3,3 km/h (1 Bft) N-NO 30 0 min 0,000 mm 0,0 UV-I 0 W/m 3,0 C 3,3 C 4,8 km/h (1 Bft) 97,46 %
17.12.2015 06:35 3,3 C 98 % 1028,9 hPa 0,0 l/m 2,3 km/h (1 Bft) O-NO 76 0 min 0,000 mm 0,0 UV-I 0 W/m 3,0 C 3,3 C 4,8 km/h (1 Bft) 98,31 %
17.12.2015 06:40 3,3 C 98 % 1029,0 hPa 0,0 l/m 1,9 km/h (1 Bft) O 88 0 min 0,000 mm 0,0 UV-I 0 W/m 3,0 C 3,3 C 4,8 km/h (1 Bft) 100,00 %
17.12.2015 06:45 3,3 C 98 % 1029,0 hPa 0,0 l/m 1,0 km/h (0 Bft) O-SO 107 0 min 0,000 mm 0,0 UV-I 0 W/m 3,0 C 3,3 C 1,6 km/h (1 Bft) 100,00 %
17.12.2015 06:50 3,4 C 98 % 1029,0 hPa 0,0 l/m 0,3 km/h (0 Bft) O-SO 107 0 min 0,000 mm 0,0 UV-I 0 W/m 3,1 C 3,4 C 1,6 km/h (1 Bft) 100,00 %
17.12.2015 06:55 3,4 C 98 % 1029,0 hPa 0,0 l/m 1,0 km/h (0 Bft) O-SO 107 0 min 0,000 mm 0,0 UV-I 0 W/m 3,1 C 3,4 C 3,2 km/h (1 Bft) 97,30 %
17.12.2015 07:00 3,3 C 98 % 1029,0 hPa 0,0 l/m 1,3 km/h (1 Bft) O-SO 106 0 min 0,000 mm 0,0 UV-I 0 W/m 3,0 C 3,3 C 3,2 km/h (1 Bft) 96,61 %
17.12.2015 07:05 3,3 C 98 % 1029,0 hPa 0,2 l/m 2,6 km/h (1 Bft) O-NO 66 0 min 0,000 mm 0,0 UV-I 0 W/m 3,0 C 3,3 C 4,8 km/h (1 Bft) 93,16 %
17.12.2015 07:10 3,3 C 98 % 1029,1 hPa 0,2 l/m 2,4 km/h (1 Bft) O-NO 66 0 min 0,000 mm 0,0 UV-I 0 W/m 3,0 C 3,3 C 4,8 km/h (1 Bft) 96,77 %
17.12.2015 07:15 3,4 C 98 % 1029,0 hPa 0,0 l/m 1,7 km/h (1 Bft) O-NO 59 0 min 0,000 mm 0,0 UV-I 0 W/m 3,1 C 3,4 C 3,2 km/h (1 Bft) 97,39 %
17.12.2015 07:20 3,4 C 98 % 1029,0 hPa 0,0 l/m 2,2 km/h (1 Bft) O-NO 59 0 min 0,000 mm 0,0 UV-I 0 W/m 3,1 C 3,4 C 4,8 km/h (1 Bft) 97,44 %
17.12.2015 07:25 3,4 C 98 % 1029,1 hPa 0,0 l/m 1,3 km/h (1 Bft) O-NO 59 0 min 0,000 mm 0,0 UV-I 0 W/m 3,1 C 3,4 C 3,2 km/h (1 Bft) 95,76 %
17.12.2015 07:30 3,4 C 98 % 1029,1 hPa 0,2 l/m 0,7 km/h (0 Bft) O-NO 59 0 min 0,000 mm 0,0 UV-I 0 W/m 3,1 C 3,4 C 3,2 km/h (1 Bft) 95,65 %
17.12.2015 07:35 3,4 C 98 % 1029,1 hPa 0,0 l/m 1,2 km/h (1 Bft) O-NO 59 0 min 0,000 mm 0,0 UV-I 0 W/m 3,1 C 3,4 C 3,2 km/h (1 Bft) 98,33 %
17.12.2015 07:40 3,4 C 98 % 1029,2 hPa 0,2 l/m 1,2 km/h (1 Bft) O-NO 59 0 min 0,000 mm 0,0 UV-I 0 W/m 3,1 C 3,4 C 3,2 km/h (1 Bft) 95,41 %
17.12.2015 07:45 3,5 C 98 % 1029,2 hPa 0,2 l/m 1,8 km/h (1 Bft) O-NO 59 0 min 0,000 mm 0,0 UV-I 0 W/m 3,2 C 3,5 C 3,2 km/h (1 Bft) 81,97 %
17.12.2015 07:50 3,5 C 98 % 1029,2 hPa 0,2 l/m 0,5 km/h (0 Bft) O-NO 59 0 min 0,000 mm 0,0 UV-I 0 W/m 3,2 C 3,5 C 1,6 km/h (1 Bft) 95,54 %
17.12.2015 07:55 3,6 C 98 % 1029,2 hPa 0,2 l/m 0,2 km/h (0 Bft) O-NO 59 0 min 0,000 mm 0,0 UV-I 0 W/m 3,3 C 3,6 C 1,6 km/h (1 Bft) 99,17 %
17.12.2015 08:00 3,5 C 98 % 1029,2 hPa 0,0 l/m 0,0 km/h (0 Bft) O-NO 59 0 min 0,000 mm 0,0 UV-I 0 W/m 3,2 C 3,5 C 0,0 km/h (0 Bft) 99,15 %
17.12.2015 08:05 3,6 C 98 % 1029,3 hPa 0,0 l/m 0,1 km/h (0 Bft) O-NO 59 0 min 0,000 mm 0,0 UV-I 5 W/m 3,3 C 3,6 C 1,6 km/h (1 Bft) 100,00 %
17.12.2015 08:10 3,6 C 98 % 1029,3 hPa 0,0 l/m 0,0 km/h (0 Bft) O-NO 59 0 min 0,000 mm 0,0 UV-I 6 W/m 3,3 C 3,6 C 0,0 km/h (0 Bft) 100,00 %
17.12.2015 08:15 3,6 C 98 % 1029,3 hPa 0,2 l/m 0,0 km/h (0 Bft) O-NO 59 0 min 0,000 mm 0,0 UV-I 9 W/m 3,3 C 3,6 C 0,0 km/h (0 Bft) 89,43 %
17.12.2015 08:20 3,7 C 98 % 1029,3 hPa 0,0 l/m 0,0 km/h (0 Bft) O-NO 59 0 min 0,000 mm 0,0 UV-I 11 W/m 3,4 C 3,7 C 0,0 km/h (0 Bft) 57,63 %
17.12.2015 08:25 3,7 C 98 % 1029,4 hPa 0,0 l/m 0,0 km/h (0 Bft) O-NO 59 0 min 0,000 mm 0,0 UV-I 12 W/m 3,4 C 3,7 C 0,0 km/h (0 Bft) 78,63 %
17.12.2015 08:30 3,7 C 98 % 1029,4 hPa 0,0 l/m 0,0 km/h (0 Bft) O-NO 59 0 min 0,000 mm 0,0 UV-I 13 W/m 3,4 C 3,7 C 0,0 km/h (0 Bft) 88,70 %
17.12.2015 08:35 3,8 C 98 % 1029,4 hPa 0,0 l/m 0,1 km/h (0 Bft) O-NO 59 0 min 0,000 mm 0,0 UV-I 9 W/m 3,5 C 3,8 C 1,6 km/h (1 Bft) 93,39 %
17.12.2015 08:40 3,8 C 98 % 1029,4 hPa 0,0 l/m 0,0 km/h (0 Bft) O-NO 59 0 min 0,000 mm 0,0 UV-I 8 W/m 3,5 C 3,8 C 1,6 km/h (1 Bft) 94,44 %
17.12.2015 08:45 3,7 C 98 % 1029,5 hPa 0,0 l/m 0,0 km/h (0 Bft) O-NO 59 0 min 0,000 mm 0,0 UV-I 11 W/m 3,4 C 3,7 C 1,6 km/h (1 Bft) 99,15 %
17.12.2015 08:50 3,8 C 98 % 1029,4 hPa 0,0 l/m 0,0 km/h (0 Bft) O-NO 59 0 min 0,000 mm 0,0 UV-I 12 W/m 3,5 C 3,8 C 1,6 km/h (1 Bft) 84,92 %
17.12.2015 08:55 3,8 C 98 % 1029,4 hPa 0,0 l/m 0,0 km/h (0 Bft) O-NO 59 0 min 0,000 mm 0,0 UV-I 13 W/m 3,5 C 3,8 C 1,6 km/h (1 Bft) 77,12 %
17.12.2015 09:00 3,8 C 98 % 1029,4 hPa 0,0 l/m 0,6 km/h (0 Bft) O-NO 59 0 min 0,000 mm 0,0 UV-I 12 W/m 3,5 C 3,8 C 1,6 km/h (1 Bft) 86,09 %
17.12.2015 09:05 3,9 C 98 % 1029,5 hPa 0,0 l/m 0,6 km/h (0 Bft) O-NO 59 0 min 0,000 mm 0,0 UV-I 14 W/m 3,6 C 3,9 C 1,6 km/h (1 Bft) 91,74 %
17.12.2015 09:10 3,9 C 98 % 1029,6 hPa 0,2 l/m 0,1 km/h (0 Bft) O-NO 59 0 min 0,000 mm 0,0 UV-I 14 W/m 3,6 C 3,9 C 1,6 km/h (1 Bft) 96,67 %
17.12.2015 09:15 3,9 C 98 % 1029,5 hPa 0,0 l/m 0,0 km/h (0 Bft) O-NO 59 0 min 0,000 mm 0,0 UV-I 13 W/m 3,6 C 3,9 C 1,6 km/h (1 Bft) 96,69 %
17.12.2015 09:20 3,9 C 98 % 1029,5 hPa 0,0 l/m 0,0 km/h (0 Bft) O-NO 59 0 min 0,000 mm 0,0 UV-I 16 W/m 3,6 C 3,9 C 0,0 km/h (0 Bft) 98,29 %
17.12.2015 09:25 4,0 C 98 % 1029,4 hPa 0,0 l/m 0,0 km/h (0 Bft) O-NO 59 0 min 0,000 mm 0,0 UV-I 22 W/m 3,7 C 4,0 C 0,0 km/h (0 Bft) 95,41 %
17.12.2015 09:30 4,0 C 98 % 1029,5 hPa 0,0 l/m 0,4 km/h (0 Bft) O-NO 59 0 min 0,000 mm 0,0 UV-I 25 W/m 3,7 C 4,0 C 1,6 km/h (1 Bft) 95,65 %
17.12.2015 09:35 4,1 C 98 % 1029,4 hPa 0,0 l/m 0,7 km/h (0 Bft) O-NO 59 0 min 0,000 mm 0,0 UV-I 27 W/m 3,8 C 4,1 C 1,6 km/h (1 Bft) 99,22 %
17.12.2015 09:40 4,2 C 98 % 1029,5 hPa 0,0 l/m 0,3 km/h (0 Bft) O-NO 59 0 min 0,000 mm 0,0 UV-I 30 W/m 3,9 C 4,2 C 1,6 km/h (1 Bft) 98,26 %
17.12.2015 09:45 4,3 C 98 % 1029,5 hPa 0,0 l/m 0,4 km/h (0 Bft) N-NO 19 0 min 0,000 mm 0,0 UV-I 34 W/m 4,0 C 4,3 C 1,6 km/h (1 Bft) 100,00 %
17.12.2015 09:50 4,3 C 98 % 1029,5 hPa 0,0 l/m 0,0 km/h (0 Bft) N-NO 19 0 min 0,000 mm 0,0 UV-I 39 W/m 4,0 C 4,3 C 0,0 km/h (0 Bft) 100,00 %
17.12.2015 09:55 4,2 C 98 % 1029,5 hPa 0,0 l/m 0,0 km/h (0 Bft) N-NO 19 0 min 0,000 mm 0,0 UV-I 44 W/m 3,9 C 4,2 C 0,0 km/h (0 Bft) 99,17 %
17.12.2015 10:00 4,4 C 98 % 1029,5 hPa 0,0 l/m 0,0 km/h (0 Bft) N-NO 19 0 min 0,000 mm 0,0 UV-I 47 W/m 4,1 C 4,4 C 1,6 km/h (1 Bft) 99,17 %
17.12.2015 10:05 4,4 C 98 % 1029,5 hPa 0,2 l/m 0,1 km/h (0 Bft) N-NO 19 0 min 0,000 mm 0,0 UV-I 42 W/m 4,1 C 4,4 C 1,6 km/h (1 Bft) 97,25 %
17.12.2015 10:10 4,6 C 98 % 1029,5 hPa 0,0 l/m 0,0 km/h (0 Bft) N-NO 19 0 min 0,000 mm 0,0 UV-I 37 W/m 4,3 C 4,6 C 0,0 km/h (0 Bft) 97,52 %
17.12.2015 10:15 4,6 C 98 % 1029,5 hPa 0,0 l/m 0,0 km/h (0 Bft) N-NO 19 0 min 0,000 mm 0,0 UV-I 33 W/m 4,3 C 4,6 C 0,0 km/h (0 Bft) 99,19 %
17.12.2015 10:20 4,7 C 98 % 1029,6 hPa 0,0 l/m 0,0 km/h (0 Bft) N-NO 19 0 min 0,000 mm 0,0 UV-I 37 W/m 4,4 C 4,7 C 1,6 km/h (1 Bft) 100,00 %
17.12.2015 10:25 4,7 C 98 % 1029,5 hPa 0,0 l/m 0,0 km/h (0 Bft) N-NO 19 0 min 0,000 mm 0,0 UV-I 40 W/m 4,4 C 4,7 C 0,0 km/h (0 Bft) 98,31 %
17.12.2015 10:30 4,7 C 98 % 1029,5 hPa 0,0 l/m 0,0 km/h (0 Bft) N-NO 19 0 min 0,000 mm 0,0 UV-I 37 W/m 4,4 C 4,7 C 0,0 km/h (0 Bft) 98,37 %
17.12.2015 10:35 4,7 C 98 % 1029,4 hPa 0,0 l/m 0,0 km/h (0 Bft) N-NO 19 0 min 0,000 mm 0,0 UV-I 40 W/m 4,4 C 4,7 C 0,0 km/h (0 Bft) 99,06 %
17.12.2015 10:40 4,8 C 98 % 1029,5 hPa 0,0 l/m 0,0 km/h (0 Bft) N-NO 19 0 min 0,000 mm 0,0 UV-I 41 W/m 4,5 C 4,8 C 0,0 km/h (0 Bft) 91,06 %
17.12.2015 10:45 4,8 C 98 % 1029,4 hPa 0,0 l/m 0,0 km/h (0 Bft) N-NO 19 0 min 0,000 mm 0,0 UV-I 53 W/m 4,5 C 4,8 C 0,0 km/h (0 Bft) 98,26 %
17.12.2015 10:50 4,9 C 98 % 1029,4 hPa 0,0 l/m 0,0 km/h (0 Bft) N-NO 19 0 min 0,000 mm 0,0 UV-I 57 W/m 4,6 C 4,9 C 0,0 km/h (0 Bft) 100,00 %
17.12.2015 10:55 5,1 C 98 % 1029,3 hPa 0,2 l/m 0,2 km/h (0 Bft) N-NO 19 0 min 0,000 mm 0,0 UV-I 72 W/m 4,8 C 5,1 C 1,6 km/h (1 Bft) 99,17 %
17.12.2015 11:00 5,1 C 98 % 1029,2 hPa 0,2 l/m 0,0 km/h (0 Bft) N-NO 22 0 min 0,025 mm 0,0 UV-I 80 W/m 4,8 C 5,1 C 1,6 km/h (1 Bft) 100,00 %
17.12.2015 11:05 5,1 C 98 % 1029,2 hPa 0,0 l/m 0,1 km/h (0 Bft) N-NO 19 0 min 0,000 mm 0,0 UV-I 73 W/m 4,8 C 5,1 C 1,6 km/h (1 Bft) 96,61 %
17.12.2015 11:10 5,2 C 98 % 1029,1 hPa 0,0 l/m 0,0 km/h (0 Bft) N-NO 19 0 min 0,000 mm 0,0 UV-I 77 W/m 4,9 C 5,2 C 0,0 km/h (0 Bft) 96,23 %
17.12.2015 11:15 5,3 C 98 % 1029,1 hPa 0,0 l/m 0,1 km/h (0 Bft) N-NO 19 0 min 0,000 mm 0,0 UV-I 89 W/m 5,0 C 5,3 C 1,6 km/h (1 Bft) 97,60 %
17.12.2015 11:20 5,4 C 98 % 1029,1 hPa 0,0 l/m 0,0 km/h (0 Bft) N-NO 19 0 min 0,000 mm 0,0 UV-I 70 W/m 5,1 C 5,4 C 1,6 km/h (1 Bft) 97,30 %
17.12.2015 11:25 5,4 C 98 % 1028,9 hPa 0,0 l/m 0,4 km/h (0 Bft) N-NO 19 0 min 0,000 mm 0,0 UV-I 54 W/m 5,1 C 5,4 C 1,6 km/h (1 Bft) 97,52 %
17.12.2015 11:30 5,4 C 98 % 1028,9 hPa 0,0 l/m 0,4 km/h (0 Bft) N-NO 19 0 min 0,000 mm 0,0 UV-I 55 W/m 5,1 C 5,4 C 1,6 km/h (1 Bft) 96,43 %
17.12.2015 11:35 5,5 C 98 % 1028,9 hPa 0,0 l/m 1,6 km/h (1 Bft) N-NO 22 0 min 0,000 mm 0,0 UV-I 58 W/m 5,2 C 5,5 C 3,2 km/h (1 Bft) 99,12 %
17.12.2015 11:40 5,6 C 98 % 1028,8 hPa 0,0 l/m 1,5 km/h (1 Bft) N-NO 19 0 min 0,000 mm 0,0 UV-I 53 W/m 5,3 C 5,6 C 3,2 km/h (1 Bft) 98,36 %
17.12.2015 11:45 5,5 C 98 % 1028,9 hPa 0,0 l/m 2,1 km/h (1 Bft) N-NO 19 0 min 0,000 mm 0,0 UV-I 35 W/m 5,2 C 5,5 C 4,8 km/h (1 Bft) 98,20 %
17.12.2015 11:50 5,4 C 98 % 1028,9 hPa 0,0 l/m 0,6 km/h (0 Bft) N 5 0 min 0,000 mm 0,0 UV-I 33 W/m 5,1 C 5,4 C 4,8 km/h (1 Bft) 98,17 %
17.12.2015 11:55 5,3 C 98 % 1028,8 hPa 0,0 l/m 2,8 km/h (1 Bft) N-NO 21 0 min 0,000 mm 0,0 UV-I 51 W/m 5,0 C 5,3 C 4,8 km/h (1 Bft) 99,15 %
17.12.2015 12:00 5,3 C 98 % 1028,7 hPa 0,0 l/m 2,5 km/h (1 Bft) N-NO 26 0 min 0,026 mm 0,0 UV-I 53 W/m 5,0 C 5,3 C 4,8 km/h (1 Bft) 91,47 %
17.12.2015 12:05 5,3 C 98 % 1028,7 hPa 0,0 l/m 1,5 km/h (1 Bft) N-NO 26 0 min 0,000 mm 0,0 UV-I 38 W/m 5,0 C 5,3 C 3,2 km/h (1 Bft) 77,68 %
17.12.2015 12:10 5,3 C 98 % 1028,6 hPa 0,0 l/m 0,9 km/h (0 Bft) N-NO 26 0 min 0,000 mm 0,0 UV-I 46 W/m 5,0 C 5,3 C 3,2 km/h (1 Bft) 75,65 %
17.12.2015 12:15 5,3 C 98 % 1028,6 hPa 0,0 l/m 0,1 km/h (0 Bft) N-NO 26 0 min 0,000 mm 0,0 UV-I 43 W/m 5,0 C 5,3 C 1,6 km/h (1 Bft) 91,06 %
17.12.2015 12:20 5,4 C 98 % 1028,6 hPa 0,0 l/m 0,7 km/h (0 Bft) N-NO 26 0 min 0,000 mm 0,0 UV-I 60 W/m 5,1 C 5,4 C 4,8 km/h (1 Bft) 98,31 %
17.12.2015 12:25 5,6 C 98 % 1028,5 hPa 0,0 l/m 0,0 km/h (0 Bft) N-NO 26 0 min 0,000 mm 0,0 UV-I 58 W/m 5,3 C 5,6 C 1,6 km/h (1 Bft) 98,17 %
17.12.2015 12:30 5,6 C 98 % 1028,5 hPa 0,0 l/m 0,1 km/h (0 Bft) N-NO 26 0 min 0,000 mm 0,0 UV-I 74 W/m 5,3 C 5,6 C 1,6 km/h (1 Bft) 97,56 %
17.12.2015 12:35 5,7 C 98 % 1028,4 hPa 0,0 l/m 0,0 km/h (0 Bft) N-NO 26 0 min 0,000 mm 0,0 UV-I 73 W/m 5,4 C 5,7 C 0,0 km/h (0 Bft) 99,17 %
17.12.2015 12:40 5,8 C 98 % 1028,3 hPa 0,0 l/m 0,0 km/h (0 Bft) N-NO 26 0 min 0,000 mm 0,0 UV-I 63 W/m 5,5 C 5,8 C 0,0 km/h (0 Bft) 100,00 %
17.12.2015 12:45 5,8 C 98 % 1028,3 hPa 0,0 l/m 0,0 km/h (0 Bft) N-NO 26 0 min 0,000 mm 0,0 UV-I 43 W/m 5,5 C 5,8 C 0,0 km/h (0 Bft) 99,13 %
17.12.2015 12:50 5,9 C 98 % 1028,3 hPa 0,0 l/m 0,1 km/h (0 Bft) N-NO 26 0 min 0,000 mm 0,0 UV-I 30 W/m 5,6 C 5,9 C 1,6 km/h (1 Bft) 96,69 %
17.12.2015 12:55 6,0 C 98 % 1028,3 hPa 0,0 l/m 1,4 km/h (1 Bft) N-NO 26 0 min 0,000 mm 0,0 UV-I 31 W/m 5,7 C 6,0 C 3,2 km/h (1 Bft) 100,00 %
17.12.2015 13:00 6,1 C 98 % 1028,2 hPa 0,0 l/m 0,1 km/h (0 Bft) N-NO 26 0 min 0,025 mm 0,0 UV-I 32 W/m 5,8 C 6,1 C 1,6 km/h (1 Bft) 99,26 %
17.12.2015 13:05 6,1 C 98 % 1028,2 hPa 0,0 l/m 0,6 km/h (0 Bft) N-NO 26 0 min 0,000 mm 0,0 UV-I 34 W/m 5,8 C 6,1 C 3,2 km/h (1 Bft) 100,00 %
17.12.2015 13:10 6,3 C 98 % 1028,2 hPa 0,0 l/m 0,0 km/h (0 Bft) N-NO 26 0 min 0,000 mm 0,0 UV-I 38 W/m 6,0 C 6,3 C 1,6 km/h (1 Bft) 97,32 %
17.12.2015 13:15 6,3 C 98 % 1028,2 hPa 0,0 l/m 0,0 km/h (0 Bft) N-NO 26 0 min 0,000 mm 0,0 UV-I 28 W/m 6,0 C 6,3 C 0,0 km/h (0 Bft) 96,43 %
17.12.2015 13:20 6,2 C 98 % 1028,1 hPa 0,0 l/m 0,4 km/h (0 Bft) N-NO 26 0 min 0,000 mm 0,0 UV-I 27 W/m 5,9 C 6,2 C 1,6 km/h (1 Bft) 94,31 %
17.12.2015 13:25 6,1 C 98 % 1028,1 hPa 0,0 l/m 1,8 km/h (1 Bft) N-NO 26 0 min 0,000 mm 0,0 UV-I 36 W/m 5,8 C 6,1 C 3,2 km/h (1 Bft) 96,69 %
17.12.2015 13:30 6,0 C 98 % 1028,1 hPa 0,0 l/m 0,8 km/h (0 Bft) N-NO 26 0 min 0,000 mm 0,0 UV-I 34 W/m 5,7 C 6,0 C 1,6 km/h (1 Bft) 96,23 %
17.12.2015 13:35 6,1 C 98 % 1028,1 hPa 0,0 l/m 2,0 km/h (1 Bft) N-NO 26 0 min 0,000 mm 0,0 UV-I 46 W/m 5,8 C 6,1 C 3,2 km/h (1 Bft) 95,35 %
17.12.2015 13:40 6,1 C 98 % 1028,0 hPa 0,0 l/m 2,8 km/h (1 Bft) N-NO 26 0 min 0,000 mm 0,0 UV-I 44 W/m 5,8 C 6,1 C 4,8 km/h (1 Bft) 95,54 %
17.12.2015 13:45 6,0 C 98 % 1027,9 hPa 0,0 l/m 2,1 km/h (1 Bft) N-NO 26 0 min 0,000 mm 0,0 UV-I 42 W/m 5,7 C 6,0 C 4,8 km/h (1 Bft) 97,50 %
17.12.2015 13:50 6,0 C 98 % 1027,9 hPa 0,0 l/m 0,2 km/h (0 Bft) N-NO 26 0 min 0,000 mm 0,0 UV-I 67 W/m 5,7 C 6,0 C 3,2 km/h (1 Bft) 98,21 %
17.12.2015 13:55 6,1 C 98 % 1027,9 hPa 0,0 l/m 0,0 km/h (0 Bft) N-NO 26 0 min 0,000 mm 0,0 UV-I 72 W/m 5,8 C 6,1 C 0,0 km/h (0 Bft) 98,35 %
17.12.2015 14:00 6,3 C 98 % 1028,0 hPa 0,0 l/m 0,0 km/h (0 Bft) N-NO 26 0 min 0,026 mm 0,0 UV-I 74 W/m 6,0 C 6,3 C 0,0 km/h (0 Bft) 100,00 %
17.12.2015 14:05 6,6 C 98 % 1027,9 hPa 0,0 l/m 0,0 km/h (0 Bft) N-NO 26 0 min 0,000 mm 0,0 UV-I 55 W/m 6,3 C 6,6 C 0,0 km/h (0 Bft) 99,15 %
17.12.2015 14:10 6,7 C 98 % 1027,9 hPa 0,0 l/m 0,0 km/h (0 Bft) N-NO 26 0 min 0,000 mm 0,0 UV-I 39 W/m 6,4 C 6,7 C 0,0 km/h (0 Bft) 100,00 %
17.12.2015 14:15 6,8 C 98 % 1028,0 hPa 0,0 l/m 0,0 km/h (0 Bft) N-NO 26 0 min 0,000 mm 0,0 UV-I 32 W/m 6,5 C 6,8 C 1,6 km/h (1 Bft) 99,07 %
17.12.2015 14:20 6,8 C 98 % 1028,0 hPa 0,0 l/m 0,1 km/h (0 Bft) N-NO 26 0 min 0,000 mm 0,0 UV-I 25 W/m 6,5 C 6,8 C 1,6 km/h (1 Bft) 98,43 %
17.12.2015 14:25 6,8 C 98 % 1028,0 hPa 0,0 l/m 0,8 km/h (0 Bft) N-NO 26 0 min 0,000 mm 0,0 UV-I 20 W/m 6,5 C 6,8 C 3,2 km/h (1 Bft) 95,61 %
17.12.2015 14:30 6,7 C 98 % 1028,0 hPa 0,0 l/m 0,2 km/h (0 Bft) N-NO 26 0 min 0,000 mm 0,0 UV-I 23 W/m 6,4 C 6,7 C 1,6 km/h (1 Bft) 98,31 %
17.12.2015 14:35 6,8 C 98 % 1028,0 hPa 0,0 l/m 1,2 km/h (1 Bft) S 190 0 min 0,000 mm 0,0 UV-I 23 W/m 6,5 C 6,8 C 4,8 km/h (1 Bft) 99,15 %
17.12.2015 14:40 7,2 C 98 % 1028,0 hPa 0,0 l/m 4,7 km/h (1 Bft) SW 220 0 min 0,000 mm 0,0 UV-I 25 W/m 6,9 C 7,2 C 11,3 km/h (2 Bft) 99,10 %
17.12.2015 14:45 7,6 C 98 % 1027,9 hPa 0,0 l/m 5,7 km/h (1 Bft) SW 232 0 min 0,000 mm 0,0 UV-I 30 W/m 7,3 C 7,6 C 8,0 km/h (2 Bft) 98,33 %
17.12.2015 14:50 8,0 C 98 % 1027,9 hPa 0,0 l/m 6,9 km/h (2 Bft) W-SW 238 0 min 0,000 mm 0,0 UV-I 30 W/m 7,7 C 7,6 C 12,9 km/h (3 Bft) 97,32 %
17.12.2015 14:55 8,4 C 98 % 1027,8 hPa 0,0 l/m 9,3 km/h (2 Bft) SW 233 0 min 0,000 mm 0,0 UV-I 32 W/m 8,1 C 6,3 C 16,1 km/h (3 Bft) 98,25 %
17.12.2015 15:00 8,8 C 98 % 1027,8 hPa 0,0 l/m 10,2 km/h (2 Bft) W-SW 240 0 min 0,025 mm 0,0 UV-I 32 W/m 8,5 C 6,1 C 16,1 km/h (3 Bft) 99,23 %
17.12.2015 15:05 9,2 C 97 % 1027,8 hPa 0,0 l/m 11,6 km/h (2 Bft) W 261 0 min 0,000 mm 0,0 UV-I 21 W/m 8,7 C 5,8 C 22,5 km/h (4 Bft) 99,12 %
17.12.2015 15:10 9,4 C 97 % 1027,8 hPa 0,0 l/m 10,5 km/h (2 Bft) W 261 0 min 0,000 mm 0,0 UV-I 15 W/m 8,9 C 6,6 C 16,1 km/h (3 Bft) 100,00 %
17.12.2015 15:15 9,6 C 96 % 1027,7 hPa 0,0 l/m 8,7 km/h (2 Bft) W 259 0 min 0,000 mm 0,0 UV-I 10 W/m 9,0 C 8,0 C 12,9 km/h (3 Bft) 97,39 %
17.12.2015 15:20 9,7 C 96 % 1027,7 hPa 0,0 l/m 8,6 km/h (2 Bft) W-SW 248 0 min 0,000 mm 0,0 UV-I 10 W/m 9,1 C 8,1 C 12,9 km/h (3 Bft) 97,50 %
17.12.2015 15:25 9,7 C 95 % 1027,7 hPa 0,0 l/m 8,1 km/h (2 Bft) W 263 0 min 0,000 mm 0,0 UV-I 11 W/m 8,9 C 8,5 C 12,9 km/h (3 Bft) 96,61 %
17.12.2015 15:30 9,7 C 95 % 1027,7 hPa 0,0 l/m 7,9 km/h (2 Bft) SW 229 0 min 0,000 mm 0,0 UV-I 10 W/m 8,9 C 8,6 C 14,5 km/h (3 Bft) 96,33 %
17.12.2015 15:35 9,7 C 95 % 1027,7 hPa 0,0 l/m 6,0 km/h (2 Bft) SW 220 0 min 0,000 mm 0,0 UV-I 11 W/m 8,9 C 9,7 C 9,7 km/h (2 Bft) 97,62 %
17.12.2015 15:40 9,7 C 95 % 1027,7 hPa 0,0 l/m 5,7 km/h (1 Bft) SW 236 0 min 0,000 mm 0,0 UV-I 11 W/m 8,9 C 9,7 C 8,0 km/h (2 Bft) 97,32 %
17.12.2015 15:45 9,8 C 95 % 1027,7 hPa 0,0 l/m 4,0 km/h (1 Bft) SW 215 0 min 0,000 mm 0,0 UV-I 8 W/m 9,0 C 9,8 C 6,4 km/h (2 Bft) 95,65 %
17.12.2015 15:50 9,8 C 95 % 1027,6 hPa 0,0 l/m 5,2 km/h (1 Bft) S-SW 205 0 min 0,000 mm 0,0 UV-I 7 W/m 9,0 C 9,8 C 8,0 km/h (2 Bft) 98,29 %
17.12.2015 15:55 9,8 C 95 % 1027,6 hPa 0,0 l/m 5,1 km/h (1 Bft) SW 215 0 min 0,000 mm 0,0 UV-I 5 W/m 9,0 C 9,8 C 8,0 km/h (2 Bft) 97,58 %
17.12.2015 16:00 9,7 C 95 % 1027,6 hPa 0,0 l/m 5,4 km/h (1 Bft) S 184 0 min 0,000 mm 0,0 UV-I 5 W/m 8,9 C 9,7 C 9,7 km/h (2 Bft) 100,00 %
17.12.2015 16:05 9,8 C 95 % 1027,5 hPa 0,0 l/m 5,7 km/h (1 Bft) SW 226 0 min 0,000 mm 0,0 UV-I 2 W/m 9,0 C 9,8 C 9,7 km/h (2 Bft) 98,31 %
17.12.2015 16:10 9,7 C 95 % 1027,4 hPa 0,0 l/m 5,5 km/h (1 Bft) SW 230 0 min 0,000 mm 0,0 UV-I 0 W/m 8,9 C 9,7 C 9,7 km/h (2 Bft) 99,11 %
17.12.2015 16:15 9,7 C 95 % 1027,3 hPa 0,0 l/m 5,0 km/h (1 Bft) SW 229 0 min 0,000 mm 0,0 UV-I 0 W/m 8,9 C 9,7 C 8,0 km/h (2 Bft) 99,17 %
17.12.2015 16:20 9,6 C 95 % 1027,2 hPa 0,0 l/m 4,3 km/h (1 Bft) SW 215 0 min 0,000 mm 0,0 UV-I 0 W/m 8,8 C 9,6 C 8,0 km/h (2 Bft) 100,00 %
17.12.2015 16:25 9,5 C 95 % 1027,2 hPa 0,0 l/m 4,9 km/h (1 Bft) S-SW 192 0 min 0,000 mm 0,0 UV-I 0 W/m 8,7 C 9,5 C 8,0 km/h (2 Bft) 99,15 %
17.12.2015 16:30 9,4 C 95 % 1027,2 hPa 0,0 l/m 4,2 km/h (1 Bft) S 182 0 min 0,000 mm 0,0 UV-I 0 W/m 8,6 C 9,4 C 8,0 km/h (2 Bft) 99,15 %
17.12.2015 16:35 9,4 C 95 % 1027,2 hPa 0,0 l/m 2,9 km/h (1 Bft) S 191 0 min 0,000 mm 0,0 UV-I 0 W/m 8,6 C 9,4 C 4,8 km/h (1 Bft) 99,13 %
17.12.2015 16:40 9,3 C 95 % 1027,2 hPa 0,0 l/m 1,6 km/h (1 Bft) S 191 0 min 0,000 mm 0,0 UV-I 0 W/m 8,5 C 9,3 C 3,2 km/h (1 Bft) 74,60 %
17.12.2015 16:45 9,2 C 96 % 1027,2 hPa 0,0 l/m 2,1 km/h (1 Bft) S 191 0 min 0,000 mm 0,0 UV-I 0 W/m 8,6 C 9,2 C 3,2 km/h (1 Bft) 50,46 %
17.12.2015 16:50 9,1 C 96 % 1027,2 hPa 0,0 l/m 1,3 km/h (1 Bft) S 191 0 min 0,000 mm 0,0 UV-I 0 W/m 8,5 C 9,1 C 3,2 km/h (1 Bft) 41,13 %
17.12.2015 16:55 9,0 C 96 % 1027,2 hPa 0,0 l/m 0,9 km/h (0 Bft) S 191 0 min 0,000 mm 0,0 UV-I 0 W/m 8,4 C 9,0 C 3,2 km/h (1 Bft) 40,83 %
17.12.2015 17:00 8,4 C 95 % 1027,2 hPa 0,0 l/m 0,9 km/h (0 Bft) S 191 0 min 0,000 mm 0,0 UV-I 0 W/m 7,6 C 8,4 C 3,2 km/h (1 Bft) 27,52 %
17.12.2015 17:05 7,8 C 95 % 1027,2 hPa 0,0 l/m 2,6 km/h (1 Bft) O-NO 59 0 min 0,000 mm 0,0 UV-I 0 W/m 7,0 C 7,8 C 6,4 km/h (2 Bft) 40,18 %
17.12.2015 17:10 7,3 C 95 % 1027,2 hPa 0,0 l/m 5,4 km/h (1 Bft) NO 41 0 min 0,000 mm 0,0 UV-I 0 W/m 6,6 C 7,3 C 8,0 km/h (2 Bft) 60,32 %
17.12.2015 17:15 6,8 C 96 % 1027,2 hPa 0,0 l/m 7,0 km/h (2 Bft) NO 48 0 min 0,000 mm 0,0 UV-I 0 W/m 6,2 C 6,3 C 9,7 km/h (2 Bft) 67,77 %
17.12.2015 17:20 6,7 C 97 % 1027,1 hPa 0,0 l/m 6,9 km/h (2 Bft) O-NO 57 0 min 0,000 mm 0,0 UV-I 0 W/m 6,3 C 6,3 C 9,7 km/h (2 Bft) 68,47 %
17.12.2015 17:25 6,6 C 97 % 1027,1 hPa 0,0 l/m 4,8 km/h (1 Bft) NO 52 0 min 0,000 mm 0,0 UV-I 0 W/m 6,2 C 6,6 C 6,4 km/h (2 Bft) 94,92 %
17.12.2015 17:30 6,7 C 97 % 1027,0 hPa 0,0 l/m 3,1 km/h (1 Bft) NO 53 0 min 0,000 mm 0,0 UV-I 0 W/m 6,3 C 6,7 C 4,8 km/h (1 Bft) 97,25 %
17.12.2015 17:35 6,6 C 97 % 1027,0 hPa 0,0 l/m 0,8 km/h (0 Bft) NO 53 0 min 0,000 mm 0,0 UV-I 0 W/m 6,2 C 6,6 C 1,6 km/h (1 Bft) 92,50 %
17.12.2015 17:40 6,6 C 97 % 1027,0 hPa 0,0 l/m 1,1 km/h (1 Bft) NO 53 0 min 0,000 mm 0,0 UV-I 0 W/m 6,2 C 6,6 C 3,2 km/h (1 Bft) 96,77 %
17.12.2015 17:45 6,6 C 98 % 1027,0 hPa 0,0 l/m 1,3 km/h (1 Bft) N 5 0 min 0,000 mm 0,0 UV-I 0 W/m 6,3 C 6,6 C 3,2 km/h (1 Bft) 95,65 %
17.12.2015 17:50 6,4 C 97 % 1027,0 hPa 0,0 l/m 0,4 km/h (0 Bft) N 5 0 min 0,000 mm 0,0 UV-I 0 W/m 6,0 C 6,4 C 1,6 km/h (1 Bft) 96,49 %
17.12.2015 17:55 6,4 C 98 % 1027,0 hPa 0,0 l/m 1,0 km/h (0 Bft) N-NO 28 0 min 0,000 mm 0,0 UV-I 0 W/m 6,1 C 6,4 C 3,2 km/h (1 Bft) 97,52 %
17.12.2015 18:00 6,4 C 98 % 1027,0 hPa 0,0 l/m 0,9 km/h (0 Bft) N-NW 346 0 min 0,000 mm 0,0 UV-I 0 W/m 6,1 C 6,4 C 3,2 km/h (1 Bft) 61,47 %
17.12.2015 18:05 6,6 C 98 % 1027,0 hPa 0,0 l/m 1,1 km/h (1 Bft) SO 131 0 min 0,000 mm 0,0 UV-I 0 W/m 6,3 C 6,6 C 4,8 km/h (1 Bft) 66,67 %
17.12.2015 18:10 6,6 C 98 % 1027,0 hPa 0,0 l/m 1,3 km/h (1 Bft) SO 134 0 min 0,000 mm 0,0 UV-I 0 W/m 6,3 C 6,6 C 3,2 km/h (1 Bft) 41,03 %
17.12.2015 18:15 6,4 C 98 % 1026,9 hPa 0,0 l/m 2,1 km/h (1 Bft) SO 134 0 min 0,000 mm 0,0 UV-I 0 W/m 6,1 C 6,4 C 4,8 km/h (1 Bft) 77,36 %
17.12.2015 18:20 6,5 C 98 % 1026,9 hPa 0,0 l/m 1,7 km/h (1 Bft) SO 134 0 min 0,000 mm 0,0 UV-I 0 W/m 6,2 C 6,5 C 3,2 km/h (1 Bft) 66,07 %
17.12.2015 18:25 6,5 C 98 % 1026,9 hPa 0,0 l/m 0,6 km/h (0 Bft) SO 134 0 min 0,000 mm 0,0 UV-I 0 W/m 6,2 C 6,5 C 3,2 km/h (1 Bft) 78,00 %
17.12.2015 18:30 6,4 C 98 % 1026,9 hPa 0,0 l/m 1,1 km/h (1 Bft) O-NO 60 0 min 0,000 mm 0,0 UV-I 0 W/m 6,1 C 6,4 C 4,8 km/h (1 Bft) 47,15 %
17.12.2015 18:35 6,4 C 98 % 1026,9 hPa 0,0 l/m 3,6 km/h (1 Bft) NO 34 0 min 0,000 mm 0,0 UV-I 0 W/m 6,1 C 6,4 C 4,8 km/h (1 Bft) 4,55 %
17.12.2015 18:40 6,4 C 98 % 1026,9 hPa 0,0 l/m 1,7 km/h (1 Bft) N-NO 12 0 min 0,000 mm 0,0 UV-I 0 W/m 6,1 C 6,4 C 4,8 km/h (1 Bft) 93,17 %
17.12.2015 18:45 6,4 C 98 % 1026,9 hPa 0,0 l/m 1,2 km/h (1 Bft) N-NO 12 0 min 0,000 mm 0,0 UV-I 0 W/m 6,1 C 6,4 C 3,2 km/h (1 Bft) 0,38 %
17.12.2015 18:50 6,4 C 98 % 1026,8 hPa 0,0 l/m 1,2 km/h (1 Bft) N-NO 20 0 min 0,000 mm 0,0 UV-I 0 W/m 6,1 C 6,4 C 3,2 km/h (1 Bft) 91,98 %
17.12.2015 18:55 6,4 C 98 % 1026,8 hPa 0,0 l/m 2,5 km/h (1 Bft) NO 34 0 min 0,000 mm 0,0 UV-I 0 W/m 6,1 C 6,4 C 6,4 km/h (2 Bft) 90,91 %
17.12.2015 19:00 6,4 C 98 % 1026,8 hPa 0,0 l/m 3,3 km/h (1 Bft) NO 53 0 min 0,000 mm 0,0 UV-I 0 W/m 6,1 C 6,4 C 6,4 km/h (2 Bft) 90,91 %
17.12.2015 19:05 6,4 C 98 % 1026,8 hPa 0,0 l/m 2,6 km/h (1 Bft) NO 48 0 min 0,000 mm 0,0 UV-I 0 W/m 6,1 C 6,4 C 4,8 km/h (1 Bft) 90,91 %
17.12.2015 19:10 6,1 C 98 % 1026,8 hPa 0,0 l/m 2,7 km/h (1 Bft) NO 48 0 min 0,000 mm 0,0 UV-I 0 W/m 5,8 C 6,1 C 4,8 km/h (1 Bft) 18,02 %
17.12.2015 19:15 6,1 C 98 % 1026,8 hPa 0,0 l/m 1,7 km/h (1 Bft) NO 48 0 min 0,000 mm 0,0 UV-I 0 W/m 5,8 C 6,1 C 3,2 km/h (1 Bft) 76,42 %
17.12.2015 19:20 6,1 C 98 % 1026,8 hPa 0,0 l/m 2,2 km/h (1 Bft) NO 48 0 min 0,000 mm 0,0 UV-I 0 W/m 5,8 C 6,1 C 3,2 km/h (1 Bft) 89,31 %
17.12.2015 19:25 6,2 C 98 % 1026,8 hPa 0,0 l/m 2,6 km/h (1 Bft) NO 49 0 min 0,000 mm 0,0 UV-I 0 W/m 5,9 C 6,2 C 4,8 km/h (1 Bft) 97,53 %
17.12.2015 19:30 6,2 C 98 % 1026,8 hPa 0,0 l/m 2,7 km/h (1 Bft) O-NO 65 0 min 0,000 mm 0,0 UV-I 0 W/m 5,9 C 6,2 C 4,8 km/h (1 Bft) 98,21 %
17.12.2015 19:35 6,2 C 98 % 1026,7 hPa 0,0 l/m 0,6 km/h (0 Bft) O 98 0 min 0,000 mm 0,0 UV-I 0 W/m 5,9 C 6,2 C 3,2 km/h (1 Bft) 94,87 %
17.12.2015 19:40 6,3 C 98 % 1026,8 hPa 0,0 l/m 0,4 km/h (0 Bft) O 101 0 min 0,000 mm 0,0 UV-I 0 W/m 6,0 C 6,3 C 1,6 km/h (1 Bft) 96,85 %
17.12.2015 19:45 6,3 C 98 % 1026,8 hPa 0,0 l/m 0,4 km/h (0 Bft) O 101 0 min 0,000 mm 0,0 UV-I 0 W/m 6,0 C 6,3 C 1,6 km/h (1 Bft) 97,80 %
17.12.2015 19:50 6,3 C 98 % 1026,7 hPa 0,0 l/m 0,8 km/h (0 Bft) SW 219 0 min 0,000 mm 0,0 UV-I 0 W/m 6,0 C 6,3 C 3,2 km/h (1 Bft) 96,45 %
17.12.2015 19:55 6,3 C 98 % 1026,8 hPa 0,0 l/m 1,7 km/h (1 Bft) SW 219 0 min 0,000 mm 0,0 UV-I 0 W/m 6,0 C 6,3 C 3,2 km/h (1 Bft) 97,25 %
17.12.2015 20:00 6,4 C 98 % 1026,8 hPa 0,0 l/m 1,0 km/h (0 Bft) SW 219 0 min 0,000 mm 0,0 UV-I 0 W/m 6,1 C 6,4 C 3,2 km/h (1 Bft) 99,03 %
17.12.2015 20:05 6,4 C 98 % 1026,8 hPa 0,0 l/m 0,2 km/h (0 Bft) SW 219 0 min 0,000 mm 0,0 UV-I 0 W/m 6,1 C 6,4 C 1,6 km/h (1 Bft) 98,52 %
17.12.2015 20:10 6,6 C 98 % 1026,8 hPa 0,0 l/m 0,6 km/h (0 Bft) SW 219 0 min 0,000 mm 0,0 UV-I 0 W/m 6,3 C 6,6 C 1,6 km/h (1 Bft) 95,65 %
17.12.2015 20:15 6,6 C 98 % 1026,9 hPa 0,0 l/m 1,5 km/h (1 Bft) W-SW 250 0 min 0,000 mm 0,0 UV-I 0 W/m 6,3 C 6,6 C 3,2 km/h (1 Bft) 98,33 %
17.12.2015 20:20 6,4 C 98 % 1026,8 hPa 0,0 l/m 0,7 km/h (0 Bft) N 11 0 min 0,000 mm 0,0 UV-I 0 W/m 6,1 C 6,4 C 4,8 km/h (1 Bft) 100,00 %
17.12.2015 20:25 6,3 C 98 % 1026,8 hPa 0,0 l/m 4,5 km/h (1 Bft) NO 44 0 min 0,000 mm 0,0 UV-I 0 W/m 6,0 C 6,3 C 6,4 km/h (2 Bft) 99,15 %
17.12.2015 20:30 6,2 C 98 % 1026,8 hPa 0,0 l/m 5,2 km/h (1 Bft) NO 42 0 min 0,000 mm 0,0 UV-I 0 W/m 5,9 C 6,2 C 8,0 km/h (2 Bft) 100,00 %
17.12.2015 20:35 6,2 C 98 % 1026,8 hPa 0,0 l/m 3,7 km/h (1 Bft) NO 55 0 min 0,000 mm 0,0 UV-I 0 W/m 5,9 C 6,2 C 4,8 km/h (1 Bft) 97,39 %
17.12.2015 20:40 6,1 C 98 % 1026,7 hPa 0,0 l/m 5,3 km/h (1 Bft) NO 52 0 min 0,000 mm 0,0 UV-I 0 W/m 5,8 C 6,1 C 6,4 km/h (2 Bft) 97,46 %
17.12.2015 20:45 6,0 C 98 % 1026,7 hPa 0,0 l/m 5,0 km/h (1 Bft) N-NO 22 0 min 0,000 mm 0,0 UV-I 0 W/m 5,7 C 6,0 C 6,4 km/h (2 Bft) 98,35 %
17.12.2015 20:50 6,0 C 98 % 1026,8 hPa 0,0 l/m 5,3 km/h (1 Bft) N-NO 20 0 min 0,000 mm 0,0 UV-I 0 W/m 5,7 C 6,0 C 8,0 km/h (2 Bft) 96,61 %
17.12.2015 20:55 6,0 C 98 % 1026,8 hPa 0,0 l/m 4,4 km/h (1 Bft) NO 36 0 min 0,000 mm 0,0 UV-I 0 W/m 5,7 C 6,0 C 6,4 km/h (2 Bft) 96,58 %
17.12.2015 21:00 5,9 C 98 % 1026,7 hPa 0,0 l/m 3,9 km/h (1 Bft) N-NO 32 0 min 0,000 mm 0,0 UV-I 0 W/m 5,6 C 5,9 C 6,4 km/h (2 Bft) 99,11 %
17.12.2015 21:05 5,9 C 98 % 1026,7 hPa 0,0 l/m 1,5 km/h (1 Bft) N-NO 32 0 min 0,000 mm 0,0 UV-I 0 W/m 5,6 C 5,9 C 3,2 km/h (1 Bft) 99,15 %
17.12.2015 21:10 5,9 C 98 % 1026,8 hPa 0,0 l/m 0,7 km/h (0 Bft) N-NO 32 0 min 0,000 mm 0,0 UV-I 0 W/m 5,6 C 5,9 C 3,2 km/h (1 Bft) 99,19 %
17.12.2015 21:15 5,9 C 98 % 1026,7 hPa 0,0 l/m 3,3 km/h (1 Bft) O 84 0 min 0,000 mm 0,0 UV-I 0 W/m 5,6 C 5,9 C 6,4 km/h (2 Bft) 95,65 %
17.12.2015 21:20 5,9 C 98 % 1026,7 hPa 0,0 l/m 2,4 km/h (1 Bft) O-NO 73 0 min 0,000 mm 0,0 UV-I 0 W/m 5,6 C 5,9 C 4,8 km/h (1 Bft) 98,21 %
17.12.2015 21:25 5,9 C 98 % 1026,8 hPa 0,0 l/m 1,4 km/h (1 Bft) O-NO 73 0 min 0,000 mm 0,0 UV-I 0 W/m 5,6 C 5,9 C 3,2 km/h (1 Bft) 98,29 %
17.12.2015 21:30 5,9 C 98 % 1026,8 hPa 0,0 l/m 1,8 km/h (1 Bft) O-NO 68 0 min 0,000 mm 0,0 UV-I 0 W/m 5,6 C 5,9 C 3,2 km/h (1 Bft) 92,17 %
17.12.2015 21:35 5,9 C 98 % 1026,8 hPa 0,0 l/m 1,5 km/h (1 Bft) O-NO 68 0 min 0,000 mm 0,0 UV-I 0 W/m 5,6 C 5,9 C 3,2 km/h (1 Bft) 94,02 %
17.12.2015 21:40 5,9 C 99 % 1026,7 hPa 0,0 l/m 2,2 km/h (1 Bft) O 82 0 min 0,000 mm 0,0 UV-I 0 W/m 5,8 C 5,9 C 4,8 km/h (1 Bft) 94,92 %
17.12.2015 21:45 6,0 C 99 % 1026,7 hPa 0,0 l/m 2,3 km/h (1 Bft) O 82 0 min 0,000 mm 0,0 UV-I 0 W/m 5,9 C 6,0 C 4,8 km/h (1 Bft) 92,74 %
17.12.2015 21:50 6,0 C 99 % 1026,7 hPa 0,0 l/m 0,1 km/h (0 Bft) O 82 0 min 0,000 mm 0,0 UV-I 0 W/m 5,9 C 6,0 C 1,6 km/h (1 Bft) 97,22 %
17.12.2015 21:55 5,9 C 99 % 1026,7 hPa 0,0 l/m 0,0 km/h (0 Bft) O 82 0 min 0,000 mm 0,0 UV-I 0 W/m 5,8 C 5,9 C 1,6 km/h (1 Bft) 95,97 %
17.12.2015 22:00 5,9 C 99 % 1026,7 hPa 0,0 l/m 0,5 km/h (0 Bft) O 82 0 min 0,000 mm 0,0 UV-I 0 W/m 5,8 C 5,9 C 3,2 km/h (1 Bft) 96,52 %
17.12.2015 22:05 6,0 C 99 % 1026,7 hPa 0,0 l/m 0,5 km/h (0 Bft) O 82 0 min 0,000 mm 0,0 UV-I 0 W/m 5,9 C 6,0 C 3,2 km/h (1 Bft) 95,93 %
17.12.2015 22:10 6,0 C 99 % 1026,6 hPa 0,0 l/m 0,0 km/h (0 Bft) O 82 0 min 0,000 mm 0,0 UV-I 0 W/m 5,9 C 6,0 C 1,6 km/h (1 Bft) 100,00 %
17.12.2015 22:15 6,0 C 99 % 1026,6 hPa 0,0 l/m 0,5 km/h (0 Bft) O 92 0 min 0,000 mm 0,0 UV-I 0 W/m 5,9 C 6,0 C 3,2 km/h (1 Bft) 98,25 %
17.12.2015 22:20 6,1 C 98 % 1026,5 hPa 0,0 l/m 2,0 km/h (1 Bft) S 179 0 min 0,000 mm 0,0 UV-I 0 W/m 5,8 C 6,1 C 6,4 km/h (2 Bft) 99,13 %
17.12.2015 22:25 6,1 C 99 % 1026,4 hPa 0,0 l/m 0,8 km/h (0 Bft) S 179 0 min 0,000 mm 0,0 UV-I 0 W/m 6,0 C 6,1 C 3,2 km/h (1 Bft) 98,46 %
17.12.2015 22:30 6,1 C 99 % 1026,5 hPa 0,0 l/m 1,0 km/h (0 Bft) S 179 0 min 0,000 mm 0,0 UV-I 0 W/m 6,0 C 6,1 C 3,2 km/h (1 Bft) 96,58 %
17.12.2015 22:35 6,2 C 99 % 1026,4 hPa 0,0 l/m 0,4 km/h (0 Bft) S 179 0 min 0,000 mm 0,0 UV-I 0 W/m 6,1 C 6,2 C 3,2 km/h (1 Bft) 99,13 %
17.12.2015 22:40 6,2 C 99 % 1026,5 hPa 0,0 l/m 1,3 km/h (1 Bft) NW 323 0 min 0,000 mm 0,0 UV-I 0 W/m 6,1 C 6,2 C 4,8 km/h (1 Bft) 100,00 %
17.12.2015 22:45 6,1 C 99 % 1026,6 hPa 0,0 l/m 1,1 km/h (1 Bft) N-NW 329 0 min 0,000 mm 0,0 UV-I 0 W/m 6,0 C 6,1 C 4,8 km/h (1 Bft) 98,29 %
17.12.2015 22:50 6,1 C 99 % 1026,5 hPa 0,0 l/m 2,7 km/h (1 Bft) O-SO 118 0 min 0,000 mm 0,0 UV-I 0 W/m 6,0 C 6,1 C 6,4 km/h (2 Bft) 98,26 %
17.12.2015 22:55 6,1 C 99 % 1026,6 hPa 0,0 l/m 2,8 km/h (1 Bft) O 88 0 min 0,000 mm 0,0 UV-I 0 W/m 6,0 C 6,1 C 6,4 km/h (2 Bft) 97,56 %
17.12.2015 23:00 6,1 C 99 % 1026,5 hPa 0,0 l/m 2,6 km/h (1 Bft) SO 136 0 min 0,000 mm 0,0 UV-I 0 W/m 6,0 C 6,1 C 6,4 km/h (2 Bft) 99,08 %
17.12.2015 23:05 6,1 C 99 % 1026,5 hPa 0,0 l/m 2,9 km/h (1 Bft) SO 126 0 min 0,000 mm 0,0 UV-I 0 W/m 6,0 C 6,1 C 6,4 km/h (2 Bft) 98,40 %
17.12.2015 23:10 6,1 C 99 % 1026,5 hPa 0,0 l/m 1,1 km/h (1 Bft) NO 45 0 min 0,000 mm 0,0 UV-I 0 W/m 6,0 C 6,1 C 3,2 km/h (1 Bft) 99,10 %
17.12.2015 23:15 6,1 C 99 % 1026,5 hPa 0,0 l/m 2,3 km/h (1 Bft) O-SO 108 0 min 0,000 mm 0,0 UV-I 0 W/m 6,0 C 6,1 C 4,8 km/h (1 Bft) 97,64 %
17.12.2015 23:20 6,1 C 99 % 1026,5 hPa 0,0 l/m 2,3 km/h (1 Bft) NO 48 0 min 0,000 mm 0,0 UV-I 0 W/m 6,0 C 6,1 C 4,8 km/h (1 Bft) 99,12 %
17.12.2015 23:25 6,1 C 99 % 1026,4 hPa 0,0 l/m 3,6 km/h (1 Bft) O-SO 119 0 min 0,000 mm 0,0 UV-I 0 W/m 6,0 C 6,1 C 4,8 km/h (1 Bft) 97,46 %
17.12.2015 23:30 6,2 C 99 % 1026,3 hPa 0,0 l/m 2,0 km/h (1 Bft) SO 145 0 min 0,000 mm 0,0 UV-I 0 W/m 6,1 C 6,2 C 4,8 km/h (1 Bft) 97,46 %
17.12.2015 23:35 6,3 C 99 % 1026,3 hPa 0,0 l/m 0,7 km/h (0 Bft) S-SO 148 0 min 0,000 mm 0,0 UV-I 0 W/m 6,2 C 6,3 C 4,8 km/h (1 Bft) 97,37 %
17.12.2015 23:40 6,2 C 99 % 1026,4 hPa 0,0 l/m 0,4 km/h (0 Bft) S-SO 159 0 min 0,000 mm 0,0 UV-I 0 W/m 6,1 C 6,2 C 1,6 km/h (1 Bft) 96,43 %
17.12.2015 23:45 6,2 C 99 % 1026,3 hPa 0,0 l/m 0,7 km/h (0 Bft) S-SO 157 0 min 0,000 mm 0,0 UV-I 0 W/m 6,1 C 6,2 C 3,2 km/h (1 Bft) 94,92 %
17.12.2015 23:50 6,2 C 99 % 1026,3 hPa 0,0 l/m 0,2 km/h (0 Bft) S-SO 157 0 min 0,000 mm 0,0 UV-I 0 W/m 6,1 C 6,2 C 1,6 km/h (1 Bft) 98,29 %
17.12.2015 23:55 6,2 C 99 % 1026,2 hPa 0,0 l/m 2,2 km/h (1 Bft) SO 142 0 min 0,000 mm 0,0 UV-I 0 W/m 6,1 C 6,2 C 8,0 km/h (2 Bft) 95,04 %
_ Min-Zeit 01:30 15:25 23:55 - 08:00 - - - - - - 01:30 02:20 08:00 18:45
Minimum _ 2,8 C 95 % 1026,2 hPa - 0,0 km/h (0 Bft) - - - - - - 2,5 C 2,2 C 0,0 km/h (0 Bft) 0,38 %
_ Max-Zeit 15:45 21:40 00:00 00:10 15:05 - - 00:00 12:00 00:00 11:15 15:20 15:45 15:05 00:00
Maximum _ 9,8 C 99 % 1029,9 hPa 0,2 l/m 11,6 km/h
W (2 Bft)
- - 0 min 0,026 mm 0,0 UV-I 89 W/m 9,1 C 9,8 C 22,5 km/h
SW (4 Bft)
100,00 %
Durchschnitt _ 5,2 C 98 % 1028,2 hPa #3,2 l/m 2,5 km/h (1 Bft) NO - #0 min. #0,127 mm 0,0 UV-I 34 W/m 4,9 C 5,1 C 4,7 km/h (1 Bft) 93,16 %